Location: Bakhuizen
(52.8696°N, 5.4575°E)
Time: 03:55:27
(UTC+00:00)

Nimbus 7 Rocket - Pass Details

Date: 04 October 2021
Orbit: 922 x 965 km, 99.4° (Epoch: 17 October)

Event Time Altitude Azimuth Distance (km) Brightness Sun altitude
Rises 23:09:57 0° 18° (NNE) 3,593 8.2 -41.7°
Reaches altitude 10° 23:12:27 10° 23° (NNE) 2,650 7.3 -41.8°
Enters shadow 23:14:15 20° 30° (NNE) 2,004 6.5 -41.8°
